Location: ??? ????
(38.0580°N, 23.1536°E)
Time: 13:13:52
(UTC+00:00)

COSMOS 2455 - Pass Details

Date: 13 December 2025
Orbit: 898 x 910 km, 67.1° (Epoch: 17 January)

Event Time Altitude Azimuth Distance (km) Brightness Sun altitude
Rises 15:43:54 0° 167° (SSE) 3,511 6.1 -7.1°
Reaches altitude 10° 15:46:59 10° 151° (SSE) 2,577 5.2 -7.7°
Maximum altitude 15:51:19 21° 105° (ESE) 1,915 4.1 -8.4°
Enters shadow 15:55:24 11° 60° (ENE) 2,527 4.5 -9.2°
